Location: McFarlands Corners
(41.4117°N, 81.3382°W)
Time: 14:12:17
(UTC+00:00)

Explorer 7 - Pass Details

Date: 16 February 2026
Orbit: 430 x 541 km, 50.2° (Epoch: 12 March)

Event Time Altitude Azimuth Distance (km) Brightness Sun altitude
Rises 03:21:30 0° 300° (WNW) 2,595 - -48.2°
Reaches altitude 10° 03:23:41 10° 297° (WNW) 1,728 - -48.5°
Maximum altitude 03:27:34 60° 217° (SW) 600 - -49.1°
Drops below altitude 10° 03:31:33 10° 138° (SE) 1,776 - -49.7°
Sets 03:33:49 0° 134° (SE) 2,676 - -50.1°
